Home   Weather   Cape Coral   Past weeks

Flag for USA Past Weather in Cape Coral, Florida, USA — Yesterday and Last 2 Weeks

Now
67 °F

Clear.


Feels Like: 67 °F
Forecast: 65 / 80 °F
Wind: No wind

Location: Page Field

Current Time: Jan 20, 2017 at 11:32:56 pm

Latest Report: Jan 20, 2017 at 10:53 pm


Visibility: 9 mi

Pressure: 30.01 "Hg

Humidity: 90%

Dew Point: 64 °F

Location of Cape CoralLocation

Past Weather in Cape Coral — Graph

°F

Cape Coral Temperature Yesterday

Maximum temperature yesterday: 80 °F (at 12:53 pm)
Minimum temperature yesterday: 60 °F (at 5:53 am)
Average temperature yesterday: 69 °F

High & Low Weather Summary for the Past Weeks

 TemperatureHumidityPressure
High83 °F (Jan 17, 2:53 pm)100% (Jan 5, 10:53 pm)30.55 "Hg (Jan 5, 10:53 pm)
Low40 °F (Jan 8, 5:53 am)31% (Jan 9, 3:53 pm)29.94 "Hg (Jan 7, 2:53 am)
Average67 °F74%30.22 "Hg
* Reported Jan 5 9:53 pm — Jan 20 9:53 pm, Cape Coral, Weather by CustomWeather, © 2017

Note: Actual official high and low records may vary slightly from our data, if they occured in-between our weather recording intervals... More about our weather records

Advertising

Cape Coral Weather History for the Previous 24 Hours

Scroll right to see more
 ConditionsComfort  
Time TempWeatherWind HumidityBarometerVisibility
9:53 pm
Fri, Jan 20
67 °FClear.No wind93%30.00 "Hg9 mi
8:53 pm70 °FClear.No wind90%29.99 "Hg9 mi
7:53 pm71 °FClear.No wind87%29.98 "Hg10 mi
6:53 pm73 °FClear.3 mph81%29.97 "Hg10 mi
5:53 pm75 °FSunny.6 mph76%29.96 "Hg10 mi
4:53 pm77 °FSunny.7 mph69%29.96 "Hg10 mi
3:53 pm79 °FSunny.9 mph65%29.95 "Hg10 mi
2:53 pm80 °FSunny.9 mph62%29.94 "Hg10 mi
1:53 pm80 °FSunny.10 mph58%29.95 "Hg10 mi
12:53 pm81 °FSunny.9 mph51%29.97 "Hg10 mi
11:53 am80 °FSunny.7 mph56%30.01 "Hg10 mi
10:53 am77 °FSunny.6 mph62%30.02 "Hg10 mi
9:53 am73 °FSunny.7 mph74%30.02 "Hg10 mi
8:53 am66 °FSunny.5 mph90%30.01 "Hg10 mi
7:53 am60 °FSunny.3 mph96%29.99 "Hg8 mi
6:53 am59 °FClear.No wind100%29.99 "Hg8 mi
6:02 am60 °FClear.3 mph96%29.99 "Hg8 mi
4:53 am61 °FClear.No wind97%29.97 "Hg9 mi
3:53 am62 °FClear.3 mph96%29.97 "Hg10 mi
2:53 am60 °FClear.No wind96%29.99 "Hg10 mi
1:53 am62 °FClear.No wind93%29.98 "Hg10 mi
12:53 am63 °FClear.No wind93%29.98 "Hg10 mi
11:53 pm
Thu, Jan 19
64 °FClear.No wind94%29.99 "Hg10 mi
Weather by CustomWeather, © 2017

See weather overviewHow to use our weather pages